| time (UTC) | temp F | wind direction | speed MPH | gust MPH | rain 1hr in | rain 24hr in | rain mn in | humidity % | barometer mb |
| 20260502221620 | 51 | 214 | 5.0 | 6.0 | 0.00 | 0.00 | 0.00 | 35 | 1014.9 |
| 20260502221118 | 50 | 28 | 2.0 | 2.0 | 0.00 | 0.00 | 0.00 | 33 | 1015.1 |
| 20260502220614 | 50 | 309 | 1.0 | 2.0 | 0.00 | 0.00 | 0.00 | 33 | 1015.2 |
| 20260502220110 | 50 | 233 | 1.0 | 6.0 | 0.00 | 0.00 | 0.00 | 38 | 1015.2 |
| 20260502215607 | 49 | 264 | 4.0 | 7.0 | 0.00 | 0.00 | 0.00 | 35 | 1015.2 |
| 20260502215104 | 49 | 276 | 4.0 | 7.0 | 0.00 | 0.00 | 0.00 | 35 | 1015.3 |
| 20260502214601 | 50 | 272 | 4.0 | 5.0 | 0.00 | 0.00 | 0.00 | 39 | 1015.3 |
| 20260502214058 | 50 | 336 | 3.0 | 3.0 | 0.00 | 0.00 | 0.00 | 36 | 1015.5 |
| 20260502213555 | 50 | 269 | 4.0 | 5.0 | 0.00 | 0.00 | 0.00 | 39 | 1015.4 |
| 20260502213053 | 50 | 265 | 7.0 | 8.0 | 0.00 | 0.00 | 0.00 | 39 | 1015.7 |
| 20260502212552 | 49 | 322 | 3.0 | 7.0 | 0.00 | 0.00 | 0.00 | 35 | 1015.5 |
| 20260502212049 | 49 | 253 | 6.0 | 11.0 | 0.00 | 0.00 | 0.00 | 35 | 1015.4 |
| 20260502211544 | 49 | 251 | 3.0 | 9.0 | 0.00 | 0.00 | 0.00 | 33 | 1015.7 |
| 20260502211042 | 50 | 312 | 2.0 | 3.0 | 0.00 | 0.00 | 0.00 | 35 | 1015.5 |
| 20260502210539 | 50 | 244 | 3.0 | 6.0 | 0.00 | 0.00 | 0.00 | 35 | 1015.8 |
| 20260502210036 | 49 | 278 | 7.0 | 8.0 | 0.00 | 0.00 | 0.00 | 37 | 1015.8 |
| 20260502205532 | 50 | 266 | 8.0 | 10.0 | 0.00 | 0.00 | 0.00 | 36 | 1015.9 |
| 20260502205030 | 50 | 315 | 5.0 | 7.0 | 0.00 | 0.00 | 0.00 | 34 | 1015.7 |
| 20260502204526 | 49 | 266 | 4.0 | 8.0 | 0.00 | 0.00 | 0.00 | 33 | 1016.0 |
| 20260502204024 | 49 | 48 | 4.0 | 6.0 | 0.00 | 0.00 | 0.00 | 33 | 1015.9 |
| 20260502203521 | 50 | 301 | 6.0 | 9.0 | 0.00 | 0.00 | 0.00 | 34 | 1016.1 |
| 20260502203018 | 49 | 230 | 3.0 | 5.0 | 0.00 | 0.00 | 0.00 | 35 | 1016.2 |
| 20260502202514 | 49 | 255 | 6.0 | 10.0 | 0.00 | 0.00 | 0.00 | 32 | 1016.3 |
| 20260502202013 | 48 | 338 | 6.0 | 8.0 | 0.00 | 0.00 | 0.00 | 37 | 1016.2 |
| 20260502201508 | 49 | 245 | 5.0 | 8.0 | 0.00 | 0.00 | 0.00 | 34 | 1016.1 |
| 20260502201005 | 48 | 284 | 2.0 | 8.0 | 0.00 | 0.00 | 0.00 | 33 | 1016.4 |
| 20260502200501 | 48 | 330 | 4.0 | 6.0 | 0.00 | 0.00 | 0.00 | 35 | 1016.3 |
| 20260502195959 | 48 | 283 | 7.0 | 10.0 | 0.00 | 0.00 | 0.00 | 37 | 1016.5 |
| 20260502195456 | 48 | 264 | 2.0 | 9.0 | 0.00 | 0.00 | 0.00 | 37 | 1016.5 |
| 20260502194952 | 48 | 305 | 5.0 | 7.0 | 0.00 | 0.00 | 0.00 | 42 | 1016.6 |
| 20260502194449 | 47 | 316 | 3.0 | 5.0 | 0.00 | 0.00 | 0.00 | 41 | 1016.7 |
| 20260502193944 | 47 | 305 | 6.0 | 11.0 | 0.00 | 0.00 | 0.00 | 40 | 1017.0 |
| 20260502193442 | 47 | 218 | 11.0 | 11.0 | 0.00 | 0.00 | 0.00 | 38 | 1016.7 |
| 20260502192938 | 46 | 42 | 2.0 | 10.0 | 0.00 | 0.00 | 0.00 | 38 | 1016.9 |
| 20260502192435 | 47 | 230 | 12.0 | 14.0 | 0.00 | 0.00 | 0.00 | 37 | 1016.7 |
| 20260502191931 | 47 | 294 | 3.0 | 6.0 | 0.00 | 0.00 | 0.00 | 40 | 1017.0 |
| 20260502191429 | 47 | 298 | 5.0 | 8.0 | 0.00 | 0.00 | 0.00 | 43 | 1016.9 |
| 20260502190927 | 47 | 239 | 5.0 | 15.0 | 0.00 | 0.00 | 0.00 | 39 | 1017.0 |
| 20260502190424 | 47 | 310 | 5.0 | 9.0 | 0.00 | 0.00 | 0.00 | 41 | 1016.8 |
| 20260502185920 | 47 | 265 | 6.0 | 9.0 | 0.00 | 0.00 | 0.00 | 37 | 1017.0 |
| 20260502185415 | 46 | 261 | 4.0 | 7.0 | 0.00 | 0.00 | 0.00 | 40 | 1017.3 |
| 20260502184913 | 46 | 250 | 11.0 | 13.0 | 0.00 | 0.00 | 0.00 | 39 | 1017.2 |
| 20260502184408 | 46 | 307 | 4.0 | 8.0 | 0.00 | 0.00 | 0.00 | 37 | 1017.2 |
| 20260502183905 | 47 | 270 | 9.0 | 11.0 | 0.00 | 0.00 | 0.00 | 38 | 1017.3 |
| 20260502183401 | 47 | 270 | 8.0 | 13.0 | 0.00 | 0.00 | 0.00 | 40 | 1017.5 |
| 20260502182856 | 47 | 275 | 6.0 | 10.0 | 0.00 | 0.00 | 0.00 | 37 | 1017.3 |
| 20260502182352 | 46 | 285 | 9.0 | 11.0 | 0.00 | 0.00 | 0.00 | 37 | 1017.1 |
| 20260502181848 | 47 | 301 | 6.0 | 10.0 | 0.00 | 0.00 | 0.00 | 37 | 1017.2 |
| 20260502181347 | 45 | 250 | 6.0 | 10.0 | 0.00 | 0.00 | 0.00 | 37 | 1017.3 |
| 20260502180845 | 46 | 305 | 6.0 | 8.0 | 0.00 | 0.00 | 0.00 | 39 | 1017.2 |
| 20260502180342 | 47 | 291 | 5.0 | 10.0 | 0.00 | 0.00 | 0.00 | 37 | 1017.4 |
| 20260502170301 | 46 | 232 | 7.0 | 11.0 | 0.00 | 0.00 | 0.00 | 41 | 1017.7 |
| 20260502164248 | 45 | 250 | 7.0 | 14.0 | 0.00 | 0.00 | 0.00 | 37 | 1017.8 |
| 20260502163744 | 45 | 274 | 8.0 | 10.0 | 0.00 | 0.00 | 0.00 | 37 | 1017.8 |
| 20260502163241 | 45 | 236 | 11.0 | 14.0 | 0.00 | 0.00 | 0.00 | 38 | 1017.8 |
| 20260502162738 | 44 | 297 | 7.0 | 14.0 | 0.00 | 0.00 | 0.00 | 38 | 1017.9 |
| 20260502162234 | 44 | 285 | 9.0 | 11.0 | 0.00 | 0.00 | 0.00 | 40 | 1017.8 |
| 20260502161731 | 45 | 264 | 8.0 | 9.0 | 0.00 | 0.00 | 0.00 | 41 | 1018.0 |
| 20260502161227 | 45 | 251 | 9.0 | 13.0 | 0.00 | 0.00 | 0.00 | 42 | 1018.2 |
| 20260502160726 | 45 | 280 | 5.0 | 8.0 | 0.00 | 0.00 | 0.00 | 42 | 1018.0 |
| 20260502160225 | 45 | 255 | 9.0 | 11.0 | 0.00 | 0.00 | 0.00 | 41 | 1018.1 |
| 20260502152149 | 44 | 284 | 4.0 | 5.0 | 0.00 | 0.00 | 0.00 | 45 | 1018.2 |
| 20260502151646 | 44 | 295 | 1.0 | 11.0 | 0.00 | 0.00 | 0.00 | 46 | 1018.2 |
| 20260502151143 | 44 | 311 | 3.0 | 9.0 | 0.00 | 0.00 | 0.00 | 46 | 1018.2 |
| 20260502150641 | 43 | 271 | 10.0 | 14.0 | 0.00 | 0.00 | 0.00 | 46 | 1018.2 |
| 20260502150137 | 43 | 227 | 8.0 | 10.0 | 0.00 | 0.00 | 0.00 | 48 | 1018.3 |
| 20260502130526 | 39 | 276 | 4.0 | 7.0 | 0.00 | 0.00 | 0.00 | 64 | 1018.8 |
| 20260502123509 | 36 | 187 | 3.0 | 5.0 | 0.00 | 0.00 | 0.00 | 81 | 1018.7 |
| 20260502123005 | 36 | 232 | 4.0 | 6.0 | 0.00 | 0.00 | 0.00 | 80 | 1018.8 |
| 20260502122501 | 36 | 253 | 3.0 | 3.0 | 0.00 | 0.00 | 0.00 | 81 | 1018.7 |
| 20260502121959 | 36 | 229 | 3.0 | 3.0 | 0.00 | 0.00 | 0.00 | 82 | 1018.9 |
| 20260502121456 | 35 | 216 | 2.0 | 3.0 | 0.00 | 0.00 | 0.00 | 86 | 1018.9 |
| 20260502120954 | 35 | 216 | 1.0 | 2.0 | 0.00 | 0.00 | 0.00 | 86 | 1018.6 |
| 20260502120450 | 34 | 207 | 2.0 | 2.0 | 0.00 | 0.00 | 0.00 | 85 | 1018.6 |
| 20260502115444 | 33 | 208 | 2.0 | 2.0 | 0.00 | 0.00 | 0.00 | 87 | 1018.9 |
| 20260502114940 | 32 | 212 | 1.0 | 2.0 | 0.00 | 0.00 | 0.00 | 89 | 1018.8 |
| 20260502114437 | 31 | 214 | 1.0 | 2.0 | 0.00 | 0.00 | 0.00 | 91 | 1018.8 |
| 20260502113935 | 30 | 221 | 0.0 | 0.0 | 0.00 | 0.00 | 0.00 | 93 | 1018.6 |
| 20260502113432 | 30 | 219 | 2.0 | 2.0 | 0.00 | 0.00 | 0.00 | 95 | 1018.8 |
| 20260502112931 | 29 | 221 | 1.0 | 2.0 | 0.00 | 0.00 | 0.00 | 97 | 1018.6 |
| 20260502112428 | 29 | 221 | 1.0 | 2.0 | 0.00 | 0.00 | 0.00 | 99 | 1018.6 |
| 20260502111925 | 29 | 221 | 1.0 | 1.0 | 0.00 | 0.00 | 0.00 | 98 | 1018.5 |
| 20260502111422 | 29 | 220 | 1.0 | 1.0 | 0.00 | 0.00 | 0.00 | 99 | 1018.8 |
| 20260502110920 | 28 | 220 | 1.0 | 2.0 | 0.00 | 0.00 | 0.00 | 99 | 1018.7 |
| 20260502110417 | 28 | 222 | 1.0 | 2.0 | 0.00 | 0.00 | 0.00 | 99 | 1018.5 |
| 20260502105914 | 28 | 228 | 1.0 | 2.0 | 0.00 | 0.00 | 0.00 | 99 | 1018.5 |
| 20260502105411 | 27 | 254 | 0.0 | 0.0 | 0.00 | 0.00 | 0.00 | 99 | 1018.5 |
| 20260502104909 | 27 | 256 | 0.0 | 0.0 | 0.00 | 0.00 | 0.00 | 99 | 1018.4 |
| 20260502104406 | 26 | 256 | 0.0 | 0.0 | 0.00 | 0.00 | 0.00 | 99 | 1018.7 |
| 20260502103904 | 26 | 256 | 1.0 | 1.0 | 0.00 | 0.00 | 0.00 | 99 | 1018.5 |
| 20260502103401 | 26 | 256 | 1.0 | 1.0 | 0.00 | 0.00 | 0.00 | 99 | 1018.6 |
| 20260502102858 | 27 | 256 | 1.0 | 2.0 | 0.00 | 0.00 | 0.00 | 99 | 1018.5 |
| 20260502102355 | 27 | 254 | 1.0 | 1.0 | 0.00 | 0.00 | 0.00 | 99 | 1018.7 |
| 20260502101852 | 27 | 254 | 1.0 | 1.0 | 0.00 | 0.00 | 0.00 | 99 | 1018.6 |
| 20260502101350 | 27 | 259 | 0.0 | 0.0 | 0.00 | 0.00 | 0.00 | 99 | 1018.4 |
| 20260502100848 | 26 | 259 | 0.0 | 0.0 | 0.00 | 0.00 | 0.00 | 99 | 1018.4 |
| 20260502100347 | 26 | 259 | 0.0 | 1.0 | 0.00 | 0.00 | 0.00 | 99 | 1018.6 |
| 20260502091321 | 27 | 259 | 0.0 | 0.0 | 0.00 | 0.00 | 0.00 | 99 | 1018.4 |
| 20260502090819 | 27 | 259 | 0.0 | 0.0 | 0.00 | 0.00 | 0.00 | 99 | 1018.3 |
| 20260502090315 | 27 | 259 | 0.0 | 0.0 | 0.00 | 0.00 | 0.00 | 99 | 1018.2 |
| 20260502071210 | 29 | 259 | 0.0 | 0.0 | 0.00 | 0.00 | 0.00 | 99 | 1018.0 |
| 20260502070709 | 29 | 259 | 0.0 | 0.0 | 0.00 | 0.00 | 0.00 | 99 | 1018.3 |
| 20260502070206 | 29 | 259 | 0.0 | 0.0 | 0.00 | 0.00 | 0.00 | 99 | 1018.1 |
| 20260502065704 | 29 | 259 | 0.0 | 0.0 | 0.00 | 0.00 | 0.00 | 99 | 1018.2 |
| 20260502065201 | 29 | 259 | 0.0 | 0.0 | 0.00 | 0.00 | 0.00 | 99 | 1018.3 |
| 20260502064700 | 30 | 259 | 0.0 | 0.0 | 0.00 | 0.00 | 0.00 | 99 | 1018.2 |
| 20260502064157 | 30 | 259 | 0.0 | 0.0 | 0.00 | 0.00 | 0.00 | 99 | 1018.2 |
| 20260502063655 | 29 | 259 | 0.0 | 0.0 | 0.00 | 0.00 | 0.00 | 99 | 1018.3 |
| 20260502063152 | 29 | 259 | 0.0 | 0.0 | 0.00 | 0.00 | 0.00 | 99 | 1018.2 |
| 20260502062649 | 29 | 259 | 0.0 | 0.0 | 0.00 | 0.00 | 0.00 | 99 | 1018.1 |
| 20260502062147 | 29 | 259 | 0.0 | 0.0 | 0.00 | 0.00 | 0.00 | 99 | 1018.1 |
| 20260502061645 | 29 | 259 | 0.0 | 0.0 | 0.00 | 0.00 | 0.00 | 99 | 1018.2 |
| 20260502061142 | 29 | 259 | 0.0 | 0.0 | 0.00 | 0.00 | 0.00 | 99 | 1018.2 |
| 20260502060642 | 30 | 259 | 0.0 | 0.0 | 0.00 | 0.00 | 0.00 | 99 | 1018.4 |
| 20260502060139 | 30 | 259 | 0.0 | 0.0 | 0.00 | 0.00 | 0.00 | 99 | 1018.2 |
| 20260502055637 | 30 | 259 | 0.0 | 0.0 | 0.00 | 0.00 | 0.00 | 99 | 1018.1 |
| 20260502055135 | 30 | 259 | 0.0 | 0.0 | 0.00 | 0.00 | 0.00 | 99 | 1018.0 |
| 20260502054634 | 30 | 259 | 0.0 | 0.0 | 0.00 | 0.00 | 0.00 | 99 | 1018.3 |
| 20260502054131 | 30 | 259 | 0.0 | 0.0 | 0.00 | 0.00 | 0.00 | 99 | 1018.3 |
| 20260502053628 | 30 | 259 | 0.0 | 0.0 | 0.00 | 0.00 | 0.00 | 99 | 1018.0 |
| 20260502053125 | 30 | 259 | 0.0 | 0.0 | 0.00 | 0.00 | 0.00 | 99 | 1018.2 |
| 20260502052623 | 30 | 259 | 0.0 | 0.0 | 0.00 | 0.00 | 0.00 | 99 | 1018.5 |
| 20260502052121 | 30 | 259 | 0.0 | 0.0 | 0.00 | 0.00 | 0.00 | 99 | 1018.3 |
| 20260502051619 | 30 | 259 | 0.0 | 0.0 | 0.00 | 0.00 | 0.00 | 99 | 1018.2 |
| 20260502051117 | 30 | 259 | 0.0 | 0.0 | 0.00 | 0.00 | 0.00 | 99 | 1018.5 |
| 20260502050613 | 30 | 259 | 0.0 | 0.0 | 0.00 | 0.00 | 0.00 | 99 | 1018.2 |
| 20260502050110 | 30 | 259 | 0.0 | 0.0 | 0.00 | 0.00 | 0.00 | 99 | 1018.0 |
| 20260502045606 | 31 | 259 | 0.0 | 0.0 | 0.00 | 0.00 | 0.00 | 99 | 1018.2 |
| 20260502045103 | 31 | 259 | 0.0 | 0.0 | 0.00 | 0.00 | 0.00 | 99 | 1018.1 |
| 20260502044559 | 30 | 259 | 0.0 | 0.0 | 0.00 | 0.00 | 0.00 | 99 | 1018.1 |
| 20260502044056 | 31 | 259 | 0.0 | 0.0 | 0.00 | 0.00 | 0.00 | 99 | 1018.1 |
| 20260502043554 | 31 | 259 | 0.0 | 0.0 | 0.00 | 0.00 | 0.00 | 99 | 1018.2 |
| 20260502043050 | 31 | 259 | 0.0 | 0.0 | 0.00 | 0.00 | 0.00 | 99 | 1018.3 |
| 20260502042545 | 31 | 259 | 0.0 | 0.0 | 0.00 | 0.00 | 0.00 | 99 | 1018.1 |
| 20260502042043 | 32 | 259 | 0.0 | 0.0 | 0.00 | 0.00 | 0.00 | 99 | 1018.3 |
| 20260502041540 | 32 | 259 | 0.0 | 0.0 | 0.00 | 0.00 | 0.00 | 99 | 1018.1 |
| 20260502041037 | 32 | 259 | 0.0 | 0.0 | 0.00 | 0.00 | 0.00 | 99 | 1018.2 |
| 20260502040534 | 32 | 259 | 0.0 | 0.0 | 0.00 | 0.00 | 0.00 | 98 | 1018.1 |
| 20260502040031 | 33 | 259 | 0.0 | 0.0 | 0.00 | 0.00 | 0.00 | 97 | 1018.1 |
| 20260502035527 | 33 | 260 | 0.0 | 0.0 | 0.00 | 0.00 | 0.00 | 96 | 1018.0 |
| 20260502035025 | 33 | 259 | 1.0 | 1.0 | 0.00 | 0.00 | 0.00 | 95 | 1018.0 |
| 20260502034522 | 33 | 259 | 1.0 | 1.0 | 0.00 | 0.00 | 0.00 | 95 | 1017.9 |
| 20260502034021 | 33 | 259 | 1.0 | 1.0 | 0.00 | 0.00 | 0.00 | 94 | 1018.4 |
| 20260502033518 | 34 | 260 | 1.0 | 1.0 | 0.00 | 0.00 | 0.00 | 93 | 1018.2 |
| 20260502033015 | 34 | 257 | 1.0 | 2.0 | 0.00 | 0.00 | 0.00 | 93 | 1018.2 |
| 20260502032511 | 34 | 256 | 1.0 | 2.0 | 0.00 | 0.00 | 0.00 | 93 | 1018.3 |
| 20260502032008 | 35 | 267 | 1.0 | 2.0 | 0.00 | 0.00 | 0.00 | 93 | 1018.0 |
| 20260502031506 | 35 | 274 | 2.0 | 3.0 | 0.00 | 0.00 | 0.00 | 92 | 1018.2 |
| 20260502031004 | 35 | 273 | 2.0 | 2.0 | 0.00 | 0.00 | 0.00 | 91 | 1018.3 |
| 20260502030502 | 35 | 273 | 1.0 | 2.0 | 0.00 | 0.00 | 0.00 | 90 | 1018.3 |
| 20260502030000 | 36 | 263 | 1.0 | 2.0 | 0.00 | 0.00 | 0.00 | 90 | 1018.3 |
| 20260502025457 | 36 | 267 | 2.0 | 2.0 | 0.00 | 0.00 | 0.00 | 90 | 1018.2 |
| 20260502024955 | 36 | 263 | 3.0 | 3.0 | 0.00 | 0.00 | 0.00 | 89 | 1018.4 |
| 20260502024452 | 36 | 257 | 2.0 | 3.0 | 0.00 | 0.00 | 0.00 | 89 | 1018.2 |
| 20260502023950 | 36 | 266 | 3.0 | 5.0 | 0.00 | 0.00 | 0.00 | 88 | 1018.1 |
| 20260502023447 | 36 | 251 | 3.0 | 5.0 | 0.00 | 0.00 | 0.00 | 88 | 1018.4 |
| 20260502022945 | 36 | 257 | 3.0 | 5.0 | 0.00 | 0.00 | 0.00 | 88 | 1018.3 |
| 20260502022441 | 37 | 263 | 2.0 | 5.0 | 0.00 | 0.00 | 0.00 | 88 | 1018.4 |
| 20260502021938 | 37 | 256 | 3.0 | 5.0 | 0.00 | 0.00 | 0.00 | 87 | 1018.4 |
| 20260502021436 | 37 | 274 | 2.0 | 3.0 | 0.00 | 0.00 | 0.00 | 88 | 1018.3 |
| 20260502020933 | 37 | 267 | 3.0 | 3.0 | 0.00 | 0.00 | 0.00 | 87 | 1018.3 |
| 20260502020431 | 37 | 276 | 3.0 | 3.0 | 0.00 | 0.00 | 0.00 | 87 | 1018.3 |
| 20260502015927 | 37 | 259 | 3.0 | 5.0 | 0.00 | 0.00 | 0.00 | 87 | 1018.3 |
| 20260502015425 | 37 | 260 | 3.0 | 5.0 | 0.00 | 0.00 | 0.00 | 87 | 1018.0 |
| 20260502014921 | 37 | 281 | 3.0 | 3.0 | 0.00 | 0.00 | 0.00 | 87 | 1017.9 |
| 20260502014418 | 37 | 275 | 3.0 | 5.0 | 0.00 | 0.00 | 0.00 | 86 | 1018.0 |
| 20260502013915 | 37 | 270 | 4.0 | 5.0 | 0.00 | 0.00 | 0.00 | 86 | 1018.2 |
| 20260502013410 | 37 | 264 | 3.0 | 5.0 | 0.00 | 0.00 | 0.00 | 86 | 1018.2 |
| 20260502012907 | 37 | 257 | 3.0 | 5.0 | 0.00 | 0.00 | 0.00 | 86 | 1017.9 |
| 20260502012405 | 37 | 283 | 2.0 | 5.0 | 0.00 | 0.00 | 0.00 | 85 | 1018.2 |
| 20260502011902 | 37 | 266 | 3.0 | 3.0 | 0.00 | 0.00 | 0.00 | 85 | 1018.1 |
| 20260502011358 | 37 | 279 | 5.0 | 7.0 | 0.00 | 0.00 | 0.00 | 85 | 1017.7 |
| 20260502010855 | 37 | 273 | 2.0 | 6.0 | 0.00 | 0.00 | 0.00 | 84 | 1018.0 |
| 20260502010352 | 37 | 243 | 3.0 | 5.0 | 0.00 | 0.00 | 0.00 | 84 | 1017.9 |
| 20260502005848 | 37 | 295 | 3.0 | 6.0 | 0.00 | 0.00 | 0.00 | 83 | 1017.7 |
| 20260502005346 | 37 | 278 | 1.0 | 6.0 | 0.00 | 0.00 | 0.00 | 83 | 1018.0 |
| 20260502004843 | 38 | 278 | 4.0 | 5.0 | 0.00 | 0.00 | 0.00 | 82 | 1017.6 |
| 20260502004339 | 38 | 262 | 4.0 | 6.0 | 0.00 | 0.00 | 0.00 | 81 | 1017.7 |
| 20260502003837 | 38 | 278 | 4.0 | 5.0 | 0.00 | 0.00 | 0.00 | 82 | 1017.8 |
| 20260502003334 | 38 | 298 | 2.0 | 6.0 | 0.00 | 0.00 | 0.00 | 80 | 1017.8 |
| 20260502002831 | 38 | 283 | 2.0 | 6.0 | 0.00 | 0.00 | 0.00 | 81 | 1017.7 |
| 20260502002328 | 38 | 284 | 7.0 | 8.0 | 0.00 | 0.00 | 0.00 | 81 | 1017.6 |
| 20260502001825 | 38 | 266 | 3.0 | 6.0 | 0.00 | 0.00 | 0.00 | 81 | 1017.7 |
| 20260502001323 | 38 | 313 | 2.0 | 3.0 | 0.00 | 0.00 | 0.00 | 80 | 1017.8 |
| 20260502000820 | 38 | 292 | 3.0 | 8.0 | 0.00 | 0.00 | 0.00 | 80 | 1017.9 |
| 20260502000318 | 38 | 271 | 7.0 | 9.0 | 0.00 | 0.00 | 0.00 | 79 | 1017.5 |
| 20260501235814 | 38 | 279 | 5.0 | 7.0 | 0.00 | 0.00 | 0.00 | 81 | 1017.6 |
| 20260501235310 | 38 | 305 | 3.0 | 5.0 | 0.00 | 0.00 | 0.00 | 79 | 1017.4 |
| 20260501234805 | 38 | 259 | 5.0 | 7.0 | 0.00 | 0.00 | 0.00 | 78 | 1017.5 |
| 20260501234302 | 39 | 290 | 3.0 | 5.0 | 0.00 | 0.00 | 0.00 | 79 | 1017.5 |
| 20260501233801 | 39 | 288 | 6.0 | 7.0 | 0.00 | 0.00 | 0.00 | 78 | 1017.5 |
| 20260501233258 | 39 | 291 | 2.0 | 5.0 | 0.00 | 0.00 | 0.00 | 78 | 1017.6 |
| 20260501232753 | 38 | 292 | 3.0 | 11.0 | 0.00 | 0.00 | 0.00 | 80 | 1017.5 |
| 20260501232251 | 39 | 284 | 5.0 | 9.0 | 0.00 | 0.00 | 0.00 | 79 | 1017.6 |
| 20260501231748 | 39 | 290 | 5.0 | 7.0 | 0.00 | 0.00 | 0.00 | 78 | 1017.7 |
| 20260501231247 | 39 | 310 | 3.0 | 10.0 | 0.00 | 0.00 | 0.00 | 76 | 1017.6 |
| 20260501230744 | 39 | 353 | 4.0 | 8.0 | 0.00 | 0.00 | 0.00 | 75 | 1017.6 |
| 20260501230243 | 39 | 299 | 4.0 | 6.0 | 0.00 | 0.00 | 0.00 | 75 | 1017.4 |
| 20260501225740 | 39 | 283 | 3.0 | 3.0 | 0.00 | 0.00 | 0.00 | 77 | 1017.4 |
| 20260501225237 | 39 | 282 | 1.0 | 3.0 | 0.00 | 0.00 | 0.00 | 78 | 1017.4 |
| 20260501224733 | 38 | 275 | 1.0 | 5.0 | 0.00 | 0.00 | 0.00 | 81 | 1017.5 |
| 20260501224231 | 37 | 281 | 1.0 | 3.0 | 0.00 | 0.00 | 0.00 | 82 | 1017.6 |
| 20260501223727 | 37 | 321 | 4.0 | 6.0 | 0.00 | 0.00 | 0.00 | 81 | 1017.6 |
| 20260501223223 | 38 | 263 | 3.0 | 6.0 | 0.00 | 0.00 | 0.00 | 79 | 1017.6 |
| 20260501222719 | 38 | 279 | 3.0 | 9.0 | 0.00 | 0.00 | 0.00 | 79 | 1017.6 |
| 20260501222217 | 38 | 306 | 4.0 | 8.0 | 0.00 | 0.00 | 0.00 | 80 | 1017.7 |